Voltar ao catálogo

FENGYUN 1C DEB

AtivoPO
NORAD 38173·DEBRIS·🇨🇳 China

Lançado May 10, 1999 de Taiyuan Satellite Launch Center

Loading…

Próximas Passagens (próximas 24 horas)

TLE

EnvelhecendoSource: Space-Track

Época: Sep 10, 2026, 00:27 UTC

1 38173U 99025ERW 26253.01909054  .00003564  00000-0  10057-2 0  9996
2 38173  98.9860 171.1300 0160149  34.4503 326.6941 14.39126162645435

Acompanhe FENGYUN 1C DEB em tempo real com AllMySat

Download on the App Store